[[[{"header":{"parameterUnit":"kt","parameterCategory":2,"dx":1,"dy":1,"la1":30.253999710083008,"la2":30.299108505249023,"lo1":-89.0895004272461,"lo2":-89.04439544677734,"nx":28,"ny":28,"refTime":"2022-10-05T21:00:00:Z","depth":0,"parameterNumber":1,"parameterNumberName":"U-component_of_WINDS"},"data":[2.5533,2.5677,2.5739,2.5931,2.602,2.6162,2.6233,2.6331,2.6426,2.6603,2.6716,2.6795,2.6915,2.7065,2.7191,2.7224,2.7272,2.7275,2.7313,2.7239,2.7233,2.7227,2.7196,2.7286,2.7286,2.7379,2.7379,2.738,2.5466,2.5555,2.5677,2.5836,2.594,2.5973,2.6103,2.6188,2.6315,2.6433,2.6549,2.6711,2.6848,2.697,2.7113,2.7181,2.7205,2.7215,2.7209,2.7227,2.7152,2.7118,2.7193,2.7193,2.7192,2.7192,2.7192,2.7192,2.5362,2.5447,2.558,2.5713,2.5811,2.5918,2.601,2.6105,2.6225,2.6382,2.6435,2.6581,2.6713,2.6918,2.7003,2.7118,2.7119,2.715,2.7158,2.7163,2.7159,2.7009,2.7147,2.7147,2.7147,2.7147,2.7147,0,2.5305,2.5351,2.5473,2.5613,2.5714,2.583,2.5946,2.6005,2.6129,2.6223,2.6366,2.6459,2.6643,2.6784,2.6934,2.7018,2.7062,2.7076,2.7097,2.707,2.7025,2.7047,2.6916,2.7072,2.7071,2.7071,2.7071,2.7071,2.5201,2.5294,2.5467,2.5543,2.5623,2.5747,2.5834,2.5937,2.6024,2.6184,2.6255,2.6399,2.6519,2.6739,2.6851,2.699,2.7013,2.7064,2.7034,2.7004,2.701,2.7001,2.701,2.7067,2.7067,2.7067,2.7068,0,2.5135,2.524,2.5406,2.5569,2.5613,2.5705,2.5845,2.5936,2.602,2.6156,2.6194,2.6327,2.6466,2.6572,2.6755,2.6805,2.6956,2.6978,2.691,2.6918,2.6972,2.6964,2.7137,2.7163,2.7075,2.7075,2.7076,0,2.5086,2.5207,2.5355,2.5446,2.5582,2.5683,2.5815,2.5901,2.6018,2.6126,2.6195,2.6296,2.6417,2.6533,2.6609,2.6752,2.6788,2.6834,2.6852,2.6826,2.682,2.6873,2.6867,2.6895,2.6894,2.6893,2.6892,0,2.497,2.5194,2.5343,2.541,2.5598,2.5665,2.5747,2.588,2.5965,2.6094,2.615,2.6293,2.637,2.648,2.6575,2.655,2.6755,2.6741,2.6802,2.6799,2.684,2.6835,2.6964,2.6891,2.6891,2.6891,2.689,0,2.4947,2.5074,2.5276,2.5433,2.5488,2.5587,2.5733,2.5844,2.5979,2.6033,2.6136,2.6195,2.6332,2.6309,2.6499,2.6439,2.6511,2.657,2.6576,2.6593,2.6564,2.6617,2.6732,2.6746,2.6609,2.6607,2.6605,0,2.4783,2.5016,2.5104,2.5295,2.5417,2.5485,2.5598,2.5717,2.5799,2.5914,2.6006,2.6138,2.6145,2.6201,2.6281,2.638,2.6459,2.6374,2.6537,2.6541,2.6493,2.6601,2.659,2.6695,2.6577,2.658,2.6582,0,2.4669,2.4897,2.4926,2.5006,2.5181,2.5285,2.5416,2.5569,2.564,2.5769,2.5879,2.6071,2.6082,2.6176,2.624,2.6318,2.6409,2.632,2.6325,2.6329,2.6574,2.6561,2.6579,2.6435,2.6438,2.6441,2.656,0,2.4601,2.4734,2.4816,2.4995,2.5093,2.5221,2.5334,2.5422,2.5473,2.5556,2.5724,2.5853,2.6012,2.6062,2.6115,2.6261,2.6252,2.6264,2.6249,2.632,2.6361,2.6379,2.6177,2.6177,2.6177,2.6177,0,0,2.4416,2.4609,2.4704,2.4835,2.4922,2.4993,2.5118,2.5213,2.5404,2.5462,2.5455,2.5743,2.5849,2.604,2.6071,2.6138,2.6173,2.6145,2.6286,2.6297,2.6309,2.6351,2.6367,2.6178,2.6178,2.6178,2.6178,0,2.4414,2.4521,2.4645,2.4747,2.4901,2.4985,2.5014,2.5181,2.5241,2.5407,2.5463,2.5578,2.5809,2.5912,2.5994,2.6125,2.6161,2.6166,2.6196,2.6284,2.6295,2.6306,2.6349,2.6364,2.6179,2.6179,2.6179,0,2.432,2.4442,2.4514,2.4721,2.4823,2.495,2.496,2.5095,2.519,2.5263,2.5427,2.5515,2.5665,2.5832,2.5913,2.5908,2.6143,2.6092,2.6094,2.6105,2.6196,2.6209,2.6221,2.6062,2.6062,2.6061,0,0,2.4302,2.4428,2.4592,2.4729,2.479,2.4917,2.4997,2.5056,2.5189,2.5242,2.5356,2.5483,2.5618,2.5704,2.5837,2.6006,2.6044,2.6073,2.6078,2.6082,2.6095,2.6187,2.62,2.6057,2.6057,2.6057,0,0,2.4295,2.449,2.4518,2.4692,2.4815,2.4987,2.5066,2.5105,2.5236,2.5235,2.5344,2.5383,2.5542,2.5628,2.5568,2.5833,2.5816,2.5833,2.5771,2.578,2.5786,2.5761,2.5599,0,0,0,0,0,2.4352,2.4466,2.4489,2.4535,2.4798,2.4973,2.5008,2.5099,2.5083,2.5144,2.5245,2.528,2.5617,2.5568,2.5612,2.5677,2.6014,2.6021,2.6029,2.599,2.5998,2.6004,0,0,0,0,0,0,2.4371,2.4427,2.4486,2.4661,2.4721,2.497,2.4963,2.4992,2.5079,2.5083,2.5259,2.5286,2.5368,2.5551,2.559,2.5649,2.5586,2.6017,2.6023,2.6029,2.5993,2.5999,2.6005,0,0,0,0,0,2.4386,2.4432,2.483,2.466,2.4713,2.4861,2.496,2.4984,2.5053,2.5211,2.5238,2.5114,2.5367,2.5406,2.5575,2.5629,2.556,2.5574,2.6021,2.6026,2.6031,2.5996,0,0,0,0,0,0,2.4398,2.4455,2.4842,2.4862,2.4624,2.4849,2.4887,2.4976,2.5177,2.5205,2.5071,2.5071,2.5368,2.5398,2.5428,2.5617,2.5538,2.5553,2.5561,2.6025,2.6029,2.6033,0,0,0,0,0,0,2.4431,2.4471,2.4852,2.4802,2.4816,2.4837,2.4871,2.5029,2.5179,2.5026,2.5033,2.5069,2.5324,2.5393,2.5417,2.5659,2.5522,2.5535,2.5545,2.5551,2.6028,2.6031,0,0,0,0,0,0,2.4449,2.4484,2.4797,2.4808,2.4821,2.5045,2.4979,2.5244,2.5134,2.5016,2.5127,2.5123,2.5318,2.5343,2.5408,2.5641,2.5655,2.5522,2.5531,2.5538,2.5542,0,0,0,0,0,0,0,2.4464,2.4214,2.4727,2.4814,2.4825,2.504,2.5045,2.5051,2.5133,2.513,2.5127,2.5125,2.5443,2.5458,2.5473,2.5625,0,0,2.5521,2.5527,0,0,0,0,0,0,0,0,2.4202,2.4211,2.4728,2.4732,2.4736,2.5041,2.5045,2.505,2.5132,2.513,2.5128,2.5126,2.5447,2.5459,2.5471,0,0,0,0,0,0,0,0,0,0,0,0,0,0,0,2.4728,2.4732,0,2.5042,2.5045,2.5049,2.5132,2.513,2.5128,2.5127,2.545,2.546,2.547,0,0,0,0,0,0,0,0,0,0,0,0,0,0,0,0,0,0,0,0,0,0,0,0,0,0,0,0,0,0,0,0,0,0,0,0,0,0,0,0,0,0,0,0,0,0,0,0,0,0,0,0,0,0,0,0,0,0,0,0,0,0,0,0,0,0,0,0,0]}],[{"header":{"parameterUnit":"kt","parameterCategory":2,"dx":1,"dy":1,"la1":30.253999710083008,"la2":30.299108505249023,"lo1":-89.0895004272461,"lo2":-89.04439544677734,"nx":28,"ny":28,"refTime":"2022-10-05T21:00:00:Z","depth":0,"parameterNumber":2,"parameterNumberName":"V-component_of_WINDS"},"data":[5.7193,5.7193,5.716,5.7143,5.711,5.7091,5.7073,5.7046,5.7016,5.6988,5.6965,5.693,5.6883,5.6845,5.6816,5.68,5.6788,5.6812,5.6788,5.6717,5.6705,5.6693,5.669,5.6812,5.6812,5.6865,5.6866,5.6866,5.7139,5.7107,5.709,5.705,5.7033,5.699,5.6954,5.6942,5.6926,5.6889,5.6866,5.6837,5.681,5.6755,5.6721,5.6716,5.6691,5.6709,5.6706,5.6698,5.6622,5.6619,5.6729,5.6729,5.6729,5.6729,5.6729,5.6729,5.703,5.7033,5.6989,5.6969,5.6941,5.6914,5.6908,5.6866,5.6847,5.6811,5.6774,5.6755,5.6709,5.6653,5.6625,5.6606,5.658,5.6587,5.6587,5.6589,5.6594,5.6512,5.6599,5.6599,5.6598,5.6598,5.6598,0,5.6939,5.6911,5.6893,5.6864,5.6848,5.6823,5.6793,5.6789,5.6716,5.6704,5.6682,5.6663,5.6624,5.6597,5.6559,5.6527,5.6477,5.647,5.6473,5.6488,5.6505,5.649,5.6362,5.6467,5.6465,5.6465,5.6464,5.6463,5.6822,5.6831,5.677,5.6761,5.6737,5.6725,5.671,5.6646,5.6632,5.6585,5.6588,5.6563,5.6538,5.6507,5.6453,5.6424,5.6398,5.6441,5.6393,5.6407,5.6391,5.639,5.6387,5.645,5.6452,5.6453,5.6454,0,5.6758,5.6705,5.6706,5.6645,5.663,5.6641,5.6586,5.6586,5.6545,5.6537,5.6531,5.6465,5.6444,5.6384,5.6348,5.6317,5.6326,5.6305,5.634,5.633,5.6358,5.6354,5.6471,5.648,5.6359,5.636,5.6361,0,5.6635,5.6649,5.6566,5.657,5.6582,5.6517,5.653,5.6496,5.6458,5.6451,5.6388,5.6382,5.6307,5.6292,5.6247,5.6245,5.624,5.6213,5.62,5.6216,5.6219,5.6203,5.6195,5.6177,5.6177,5.6176,5.6176,0,5.6536,5.6511,5.6518,5.6503,5.6438,5.6443,5.6416,5.6373,5.6359,5.6332,5.6321,5.6294,5.6278,5.6256,5.6197,5.6167,5.6196,5.6141,5.6168,5.6169,5.6174,5.6174,5.6296,5.6175,5.6175,5.6175,5.6174,0,5.6426,5.6402,5.6423,5.6366,5.6362,5.6368,5.6336,5.6327,5.6287,5.6259,5.6237,5.6186,5.6184,5.6133,5.6126,5.6102,5.6089,5.6065,5.6066,5.6058,5.6001,5.6071,5.6199,5.6206,5.6055,5.6054,5.6053,0,5.6325,5.6333,5.6277,5.6298,5.6292,5.6219,5.6223,5.6191,5.6154,5.6142,5.61,5.6087,5.6038,5.6025,5.6031,5.5985,5.6018,5.598,5.5956,5.5956,5.5963,5.6082,5.6113,5.6178,5.604,5.6041,5.6042,0,5.6239,5.6163,5.6171,5.6149,5.6098,5.6094,5.6101,5.6074,5.6069,5.6042,5.6042,5.6026,5.5985,5.5966,5.5922,5.5931,5.5994,5.5886,5.5884,5.5903,5.603,5.6059,5.607,5.5962,5.5963,5.5964,5.6032,0,5.6074,5.6073,5.6094,5.6052,5.6041,5.6053,5.5991,5.5987,5.5945,5.5905,5.5908,5.5867,5.584,5.584,5.58,5.5842,5.5824,5.5782,5.5724,5.5805,5.5824,5.5833,5.5699,5.5697,5.5696,5.5694,0,0,5.5987,5.5984,5.5923,5.5928,5.5914,5.5837,5.5855,5.5832,5.5789,5.5779,5.5748,5.5719,5.5688,5.5697,5.5717,5.5709,5.5708,5.5684,5.5768,5.5777,5.5785,5.5807,5.5818,5.5691,5.5691,5.569,5.5689,0,5.5913,5.5886,5.5906,5.588,5.584,5.5798,5.5803,5.5749,5.5724,5.573,5.5664,5.5659,5.5641,5.5612,5.5596,5.5682,5.5631,5.568,5.5744,5.5754,5.5764,5.5774,5.5799,5.5809,5.5685,5.5686,5.5686,0,5.5813,5.5774,5.5778,5.5746,5.5719,5.5717,5.5641,5.5644,5.5641,5.5556,5.5562,5.5531,5.5491,5.5511,5.5518,5.5488,5.5564,5.5532,5.5541,5.5539,5.5544,5.5557,5.5569,5.5413,5.5412,5.5412,0,0,5.5756,5.5756,5.5694,5.5725,5.5713,5.5651,5.5645,5.5602,5.5569,5.5556,5.5515,5.5483,5.547,5.5464,5.5449,5.5482,5.5465,5.5501,5.5514,5.5524,5.5528,5.5537,5.555,5.5409,5.5409,5.5409,0,0,5.5729,5.5658,5.5622,5.5651,5.5623,5.5562,5.5583,5.5537,5.5518,5.5509,5.5437,5.5426,5.5444,5.5416,5.5388,5.5426,5.5371,5.5377,5.5443,5.5459,5.5471,5.5475,5.5303,0,0,0,0,0,5.562,5.5666,5.5635,5.5631,5.559,5.5581,5.5575,5.5516,5.5477,5.5494,5.5452,5.54,5.5385,5.5358,5.5355,5.5385,5.5375,5.5381,5.5387,5.548,5.5496,5.551,0,0,0,0,0,0,5.5618,5.5613,5.5633,5.5576,5.5566,5.5578,5.5498,5.5484,5.5473,5.5463,5.541,5.5398,5.5348,5.5356,5.5354,5.5384,5.5304,5.5377,5.5382,5.5387,5.5485,5.5499,5.5511,0,0,0,0,0,5.5616,5.5612,5.5563,5.5575,5.5567,5.55,5.5496,5.5483,5.5474,5.541,5.5396,5.5431,5.535,5.5344,5.5354,5.5387,5.5305,5.5304,5.5381,5.5385,5.5388,5.5492,0,0,0,0,0,0,5.5615,5.56,5.556,5.5555,5.5553,5.5498,5.5487,5.5483,5.542,5.5407,5.5427,5.542,5.5353,5.5347,5.5343,5.5391,5.5306,5.5305,5.5305,5.5384,5.5387,5.539,0,0,0,0,0,0,5.5601,5.5596,5.5557,5.5533,5.5525,5.5496,5.5487,5.5488,5.542,5.544,5.5432,5.5425,5.5359,5.535,5.5346,5.5351,5.5307,5.5306,5.5306,5.5306,5.5386,5.5389,0,0,0,0,0,0,5.5598,5.5593,5.5534,5.5528,5.5521,5.5462,5.5496,5.5458,5.5401,5.5445,5.5394,5.5391,5.5363,5.5358,5.5349,5.5355,5.5352,5.5307,5.5307,5.5306,5.5306,0,0,0,0,0,0,0,5.5595,5.564,5.5589,5.5524,5.5517,5.551,5.5509,5.5507,5.54,5.5397,5.5395,5.5392,5.5311,5.531,5.5309,5.5359,0,0,5.5307,5.5307,0,0,0,0,0,0,0,0,5.564,5.564,5.5589,5.5588,5.5587,5.551,5.5509,5.5508,5.54,5.5398,5.5395,5.5393,5.5311,5.531,5.531,0,0,0,0,0,0,0,0,0,0,0,0,0,0,0,5.5589,5.5588,0,5.551,5.5509,5.5508,5.5399,5.5398,5.5396,5.5394,5.5311,5.531,5.531,0,0,0,0,0,0,0,0,0,0,0,0,0,0,0,0,0,0,0,0,0,0,0,0,0,0,0,0,0,0,0,0,0,0,0,0,0,0,0,0,0,0,0,0,0,0,0,0,0,0,0,0,0,0,0,0,0,0,0,0,0,0,0,0,0,0,0,0,0]}]]]